Time,TemperatureF,DewpointF,PressureIn,WindDirection,WindDirectionDegrees,WindSpeedMPH,WindSpeedGustMPH,Humidity,HourlyPrecipIn,Conditions,Clouds,dailyrainin,SoftwareType,DateUTC
2013-02-18 00:00:00,9.6,3.6,30.16,West,264,1.1,1.1,76,0.00,RA,,0.00,WeatherDisplay:10.37,2013-02-18 05:00:00,
2013-02-18 00:02:00,9.4,3.4,30.16,West,265,0.0,0.0,76,0.00,RA,,0.00,WeatherDisplay:10.37,2013-02-18 05:02:00,
2013-02-18 00:07:00,9.2,3.4,30.16,West,264,1.0,0.0,77,0.00,RA,,0.00,WeatherDisplay:10.37,2013-02-18 05:07:00,
2013-02-18 00:09:00,9.2,3.4,30.16,West,265,0.0,0.0,77,0.00,RA,,0.00,WeatherDisplay:10.37,2013-02-18 05:09:00,
2013-02-18 00:14:00,9.5,4.0,30.16,West,265,0.0,0.0,78,0.00,CLR,,0.00,WeatherDisplay:10.37,2013-02-18 05:14:00,
2013-02-18 00:19:00,9.9,4.4,30.16,West,264,0.0,0.1,78,0.00,CLR,,0.00,WeatherDisplay:10.37,2013-02-18 05:19:00,
2013-02-18 00:24:00,10.4,4.6,30.16,West,264,0.0,0.0,77,0.00,CLR,,0.00,WeatherDisplay:10.37,2013-02-18 05:24:00,
2013-02-18 00:29:00,10.5,4.7,30.16,West,264,1.1,1.1,77,0.00,CLR,,0.00,WeatherDisplay:10.37,2013-02-18 05:29:00,
2013-02-18 00:34:00,10.7,4.9,30.16,West,264,0.0,0.0,77,0.00,CLR,,0.00,WeatherDisplay:10.37,2013-02-18 05:34:00,
2013-02-18 00:39:00,10.9,5.1,30.17,West,264,0.0,0.0,77,0.00,CLR,,0.00,WeatherDisplay:10.37,2013-02-18 05:39:00,
2013-02-18 00:44:00,11.2,5.1,30.16,West,264,0.0,0.0,76,0.00,CLR,,0.00,WeatherDisplay:10.37,2013-02-18 05:44:00,
2013-02-18 00:49:00,11.6,5.5,30.17,West,264,1.1,1.1,76,0.00,CLR,,0.00,WeatherDisplay:10.37,2013-02-18 05:49:00,
2013-02-18 00:54:00,11.9,5.8,30.17,West,264,0.0,0.0,76,0.00,CLR,,0.00,WeatherDisplay:10.37,2013-02-18 05:54:00,
2013-02-18 00:59:00,12.1,6.0,30.17,West,263,0.0,0.0,76,0.00,CLR,,0.00,WeatherDisplay:10.37,2013-02-18 05:59:00,
2013-02-18 01:04:00,12.3,5.9,30.17,West,263,0.0,0.0,75,0.00,CLR,,0.00,WeatherDisplay:10.37,2013-02-18 06:04:00,
2013-02-18 01:09:00,12.4,6.0,30.17,West,263,1.1,1.1,75,0.00,CLR,,0.00,WeatherDisplay:10.37,2013-02-18 06:09:00,
2013-02-18 01:14:00,12.4,5.7,30.16,West,263,0.0,0.0,74,0.00,CLR,,0.00,WeatherDisplay:10.37,2013-02-18 06:14:00,
2013-02-18 01:19:00,12.5,6.1,30.16,West,261,0.0,0.0,75,0.00,CLR,,0.00,WeatherDisplay:10.37,2013-02-18 06:19:00,
2013-02-18 01:24:00,12.6,6.2,30.16,West,259,0.0,0.0,75,0.00,CLR,,0.00,WeatherDisplay:10.37,2013-02-18 06:24:00,
2013-02-18 01:29:00,12.8,6.4,30.16,West,259,3.5,3.5,75,0.00,CLR,,0.00,WeatherDisplay:10.37,2013-02-18 06:29:00,
2013-02-18 01:34:00,12.9,6.5,30.16,WSW,258,1.1,0.0,75,0.00,CLR,,0.00,WeatherDisplay:10.37,2013-02-18 06:34:00,
2013-02-18 01:39:00,13.0,6.3,30.16,West,259,0.0,0.0,74,0.00,CLR,,0.00,WeatherDisplay:10.37,2013-02-18 06:39:00,
2013-02-18 01:44:00,13.0,6.3,30.16,WSW,258,2.3,0.0,74,0.00,CLR,,0.00,WeatherDisplay:10.37,2013-02-18 06:44:00,
2013-02-18 01:49:00,13.1,6.4,30.16,WSW,257,1.0,0.0,74,0.00,CLR,,0.00,WeatherDisplay:10.37,2013-02-18 06:49:00,
2013-02-18 01:54:00,13.2,6.5,30.16,WSW,256,0.0,0.0,74,0.00,CLR,,0.00,WeatherDisplay:10.37,2013-02-18 06:54:00,
2013-02-18 01:59:00,13.2,6.5,30.16,WSW,257,0.0,0.0,74,0.00,CLR,,0.00,WeatherDisplay:10.37,2013-02-18 06:59:00,
2013-02-18 02:04:00,13.2,6.8,30.16,WSW,257,2.3,2.3,75,0.00,CLR,,0.00,WeatherDisplay:10.37,2013-02-18 07:04:00,
2013-02-18 02:09:00,13.2,6.8,30.16,WSW,257,0.0,0.0,75,0.00,CLR,,0.00,WeatherDisplay:10.37,2013-02-18 07:09:00,
2013-02-18 02:14:00,13.2,6.8,30.16,WSW,256,2.3,2.3,75,0.00,CLR,,0.00,WeatherDisplay:10.37,2013-02-18 07:14:00,
2013-02-18 02:19:00,13.1,6.7,30.15,WSW,257,0.0,0.0,75,0.00,CLR,,0.00,WeatherDisplay:10.37,2013-02-18 07:19:00,
2013-02-18 02:24:00,13.2,6.8,30.16,WSW,254,3.5,3.5,75,0.00,CLR,,0.00,WeatherDisplay:10.37,2013-02-18 07:24:00,
2013-02-18 02:29:00,13.2,7.0,30.15,WSW,253,1.1,1.1,76,0.00,CLR,,0.00,WeatherDisplay:10.37,2013-02-18 07:29:00,
2013-02-18 02:34:00,13.3,7.1,30.16,WSW,254,1.1,1.1,76,0.00,CLR,,0.00,WeatherDisplay:10.37,2013-02-18 07:34:00,
2013-02-18 02:39:00,13.3,7.1,30.15,WSW,250,2.0,2.0,76,0.00,CLR,,0.00,WeatherDisplay:10.37,2013-02-18 07:39:00,
2013-02-18 02:44:00,13.5,7.3,30.15,WSW,250,0.0,0.1,76,0.00,CLR,,0.00,WeatherDisplay:10.37,2013-02-18 07:44:00,
2013-02-18 02:49:00,13.4,7.2,30.15,WSW,249,0.0,0.0,76,0.00,CLR,,0.00,WeatherDisplay:10.37,2013-02-18 07:49:00,
2013-02-18 02:54:00,13.5,7.3,30.15,WSW,246,2.3,2.3,76,0.00,CLR,,0.00,WeatherDisplay:10.37,2013-02-18 07:54:00,
2013-02-18 02:59:00,13.6,7.7,30.15,WSW,245,1.1,1.1,77,0.00,CLR,,0.00,WeatherDisplay:10.37,2013-02-18 07:59:00,
2013-02-18 03:04:00,13.8,7.9,30.15,WSW,244,2.3,2.3,77,0.00,CLR,,0.00,WeatherDisplay:10.37,2013-02-18 08:04:00,
2013-02-18 03:09:00,13.9,7.7,30.15,SW,235,3.5,3.5,76,0.00,CLR,,0.00,WeatherDisplay:10.37,2013-02-18 08:09:00,
2013-02-18 03:14:00,13.9,7.7,30.15,SW,235,0.0,0.0,76,0.00,CLR,,0.00,WeatherDisplay:10.37,2013-02-18 08:14:00,
2013-02-18 03:19:00,14.0,7.8,30.14,SW,232,2.3,2.3,76,0.00,CLR,,0.00,WeatherDisplay:10.37,2013-02-18 08:19:00,
2013-02-18 03:24:00,14.0,7.8,30.15,SW,230,1.1,0.0,76,0.00,CLR,,0.00,WeatherDisplay:10.37,2013-02-18 08:24:00,
2013-02-18 03:29:00,14.1,8.2,30.14,SW,230,0.0,0.0,77,0.00,CLR,,0.00,WeatherDisplay:10.37,2013-02-18 08:29:00,
2013-02-18 03:34:00,14.1,8.2,30.14,SW,230,2.3,2.3,77,0.00,CLR,,0.00,WeatherDisplay:10.37,2013-02-18 08:34:00,
2013-02-18 03:39:00,14.2,8.3,30.14,SW,230,1.1,1.1,77,0.00,CLR,,0.00,WeatherDisplay:10.37,2013-02-18 08:39:00,
2013-02-18 03:44:00,14.3,8.4,30.13,SW,230,0.0,0.0,77,0.00,CLR,,0.00,WeatherDisplay:10.37,2013-02-18 08:44:00,
2013-02-18 03:49:00,14.3,8.4,30.13,SW,227,3.5,0.0,77,0.00,CLR,,0.00,WeatherDisplay:10.37,2013-02-18 08:49:00,
2013-02-18 03:54:00,14.4,8.5,30.13,SW,226,2.0,2.0,77,0.00,CLR,,0.00,WeatherDisplay:10.37,2013-02-18 08:54:00,
2013-02-18 03:59:00,14.5,8.6,30.13,SW,226,0.0,0.0,77,0.00,CLR,,0.00,WeatherDisplay:10.37,2013-02-18 08:59:00,
2013-02-18 04:04:00,14.7,8.5,30.13,South,184,0.0,0.0,76,0.00,CLR,,0.00,WeatherDisplay:10.37,2013-02-18 09:04:00,
2013-02-18 04:09:00,14.8,8.6,30.13,South,187,1.1,0.0,76,0.00,CLR,,0.00,WeatherDisplay:10.37,2013-02-18 09:09:00,
2013-02-18 04:14:00,14.9,8.7,30.13,South,187,0.0,0.0,76,0.00,CLR,,0.00,WeatherDisplay:10.37,2013-02-18 09:14:00,
2013-02-18 04:19:00,15.0,8.8,30.12,South,187,0.0,0.0,76,0.00,CLR,,0.00,WeatherDisplay:10.37,2013-02-18 09:19:00,
2013-02-18 04:24:00,15.0,8.8,30.12,South,186,0.0,0.1,76,0.00,CLR,,0.00,WeatherDisplay:10.37,2013-02-18 09:24:00,
2013-02-18 04:29:00,15.2,9.0,30.11,South,186,3.5,3.5,76,0.00,CLR,,0.00,WeatherDisplay:10.37,2013-02-18 09:29:00,
2013-02-18 04:34:00,15.4,9.2,30.11,South,178,0.0,0.0,76,0.00,CLR,,0.00,WeatherDisplay:10.37,2013-02-18 09:34:00,
2013-02-18 04:39:00,15.4,9.2,30.11,South,182,3.5,3.5,76,0.00,CLR,,0.00,WeatherDisplay:10.37,2013-02-18 09:39:00,
2013-02-18 04:44:00,15.6,9.4,30.11,South,183,1.1,0.0,76,0.00,CLR,,0.00,WeatherDisplay:10.37,2013-02-18 09:44:00,
2013-02-18 04:49:00,15.7,9.5,30.11,South,183,2.3,0.0,76,0.00,CLR,,0.00,WeatherDisplay:10.37,2013-02-18 09:49:00,
2013-02-18 04:54:00,15.9,9.4,30.10,South,183,2.3,2.3,75,0.00,CLR,,0.00,WeatherDisplay:10.37,2013-02-18 09:54:00,
2013-02-18 04:59:00,16.0,9.5,30.10,South,169,0.0,0.0,75,0.00,CLR,,0.00,WeatherDisplay:10.37,2013-02-18 09:59:00,
2013-02-18 05:04:00,16.1,9.6,30.10,SSW,194,4.0,4.0,75,0.00,CLR,,0.00,WeatherDisplay:10.37,2013-02-18 10:04:00,
2013-02-18 05:09:00,16.2,9.7,30.10,South,182,3.5,3.5,75,0.00,CLR,,0.00,WeatherDisplay:10.37,2013-02-18 10:09:00,
2013-02-18 05:14:00,16.4,9.9,30.10,SSW,207,3.5,3.5,75,0.00,CLR,,0.00,WeatherDisplay:10.37,2013-02-18 10:14:00,
2013-02-18 05:19:00,16.6,9.8,30.09,SSW,207,0.0,0.0,74,0.00,CLR,,0.00,WeatherDisplay:10.37,2013-02-18 10:19:00,
2013-02-18 05:24:00,16.6,9.8,30.09,SSW,207,0.0,0.0,74,0.00,CLR,,0.00,WeatherDisplay:10.37,2013-02-18 10:24:00,
2013-02-18 05:29:00,16.6,9.8,30.09,SSW,207,1.1,1.1,74,0.00,CLR,,0.00,WeatherDisplay:10.37,2013-02-18 10:29:00,
2013-02-18 05:34:00,16.8,9.9,30.09,SSW,207,3.5,3.5,74,0.00,CLR,,0.00,WeatherDisplay:10.37,2013-02-18 10:34:00,
2013-02-18 05:39:00,16.9,10.0,30.09,SSW,206,2.3,2.3,74,0.00,CLR,,0.00,WeatherDisplay:10.37,2013-02-18 10:39:00,
2013-02-18 05:44:00,16.9,10.0,30.09,SSW,205,1.0,0.0,74,0.00,CLR,,0.00,WeatherDisplay:10.37,2013-02-18 10:44:00,
2013-02-18 05:49:00,17.0,10.1,30.09,SSW,205,0.0,0.6,74,0.00,CLR,,0.00,WeatherDisplay:10.37,2013-02-18 10:49:00,
2013-02-18 05:54:00,17.1,10.2,30.08,SSW,205,3.5,3.5,74,0.00,CLR,,0.00,WeatherDisplay:10.37,2013-02-18 10:54:00,
2013-02-18 05:59:00,17.1,10.2,30.08,SSW,201,1.1,1.1,74,0.00,CLR,,0.00,WeatherDisplay:10.37,2013-02-18 10:59:00,
2013-02-18 06:04:00,17.2,10.3,30.08,South,189,3.0,3.0,74,0.00,CLR,,0.00,WeatherDisplay:10.37,2013-02-18 11:04:00,
2013-02-18 06:09:00,17.3,10.4,30.07,South,190,1.1,1.1,74,0.00,CLR,,0.00,WeatherDisplay:10.37,2013-02-18 11:09:00,
2013-02-18 06:14:00,17.4,10.5,30.07,SSW,192,0.0,0.0,74,0.00,CLR,,0.00,WeatherDisplay:10.37,2013-02-18 11:14:00,
2013-02-18 06:19:00,17.4,10.5,30.06,SSW,192,0.0,0.1,74,0.00,CLR,,0.00,WeatherDisplay:10.37,2013-02-18 11:19:00,
2013-02-18 06:24:00,17.5,10.6,30.07,South,190,4.6,4.6,74,0.00,CLR,,0.00,WeatherDisplay:10.37,2013-02-18 11:24:00,
2013-02-18 06:30:00,17.6,10.7,30.06,South,190,3.5,3.5,74,0.00,CLR,,0.00,WeatherDisplay:10.37,2013-02-18 11:30:00,
2013-02-18 06:35:00,17.6,10.7,30.06,South,190,2.3,2.3,74,0.00,CLR,,0.00,WeatherDisplay:10.37,2013-02-18 11:35:00,
2013-02-18 06:40:00,17.7,10.8,30.05,South,186,3.5,3.5,74,0.00,CLR,,0.00,WeatherDisplay:10.37,2013-02-18 11:40:00,
2013-02-18 06:45:00,17.8,10.9,30.04,South,180,3.5,3.5,74,0.00,CLR,,0.00,WeatherDisplay:10.37,2013-02-18 11:45:00,
2013-02-18 06:50:00,17.9,11.3,30.04,South,179,0.0,0.0,75,0.00,CLR,,0.00,WeatherDisplay:10.37,2013-02-18 11:50:00,
2013-02-18 06:55:00,17.9,11.0,30.04,South,183,2.3,2.3,74,0.00,CLR,,0.00,WeatherDisplay:10.37,2013-02-18 11:55:00,
2013-02-18 07:00:00,18.0,11.4,30.04,South,183,3.5,3.5,75,0.00,CLR,,0.00,WeatherDisplay:10.37,2013-02-18 12:00:00,
2013-02-18 07:05:00,18.1,11.2,30.04,South,175,4.6,4.6,74,0.00,CLR,,0.00,WeatherDisplay:10.37,2013-02-18 12:05:00,
2013-02-18 07:10:00,18.2,11.3,30.03,South,182,3.5,3.5,74,0.00,CLR,,0.00,WeatherDisplay:10.37,2013-02-18 12:10:00,
2013-02-18 07:15:00,18.3,11.4,30.03,South,183,0.0,0.7,74,0.00,CLR,,0.00,WeatherDisplay:10.37,2013-02-18 12:15:00,
2013-02-18 07:20:00,18.5,11.6,30.02,South,182,2.3,2.3,74,0.00,CLR,,0.00,WeatherDisplay:10.37,2013-02-18 12:20:00,
2013-02-18 07:25:00,18.6,12.0,30.02,South,182,4.6,4.6,75,0.00,CLR,,0.00,WeatherDisplay:10.37,2013-02-18 12:25:00,
2013-02-18 07:30:00,18.7,12.1,30.02,South,180,1.1,1.1,75,0.00,CLR,,0.00,WeatherDisplay:10.37,2013-02-18 12:30:00,
2013-02-18 07:35:00,18.9,12.0,30.01,South,190,3.5,3.5,74,0.00,CLR,,0.00,WeatherDisplay:10.37,2013-02-18 12:35:00,
2013-02-18 07:40:00,19.1,12.2,30.01,SSW,201,9.2,9.2,74,0.00,CLR,,0.00,WeatherDisplay:10.37,2013-02-18 12:40:00,
2013-02-18 07:45:00,19.2,12.3,30.01,South,190,5.8,5.8,74,0.00,CLR,,0.00,WeatherDisplay:10.37,2013-02-18 12:45:00,
2013-02-18 07:50:00,19.2,12.0,30.00,South,178,3.5,3.5,73,0.00,CLR,,0.00,WeatherDisplay:10.37,2013-02-18 12:50:00,
2013-02-18 07:55:00,19.1,12.2,30.00,SSW,192,7.0,7.0,74,0.00,CLR,,0.00,WeatherDisplay:10.37,2013-02-18 12:55:00,
2013-02-18 08:00:00,19.2,12.3,30.00,South,181,3.5,3.5,74,0.00,CLR,,0.00,WeatherDisplay:10.37,2013-02-18 13:00:00,
2013-02-18 08:05:00,19.3,12.4,29.99,SSE,166,3.5,3.5,74,0.00,CLR,,0.00,WeatherDisplay:10.37,2013-02-18 13:05:00,
2013-02-18 08:10:00,19.4,12.2,29.99,South,182,2.3,0.0,73,0.00,CLR,,0.00,WeatherDisplay:10.37,2013-02-18 13:10:00,
2013-02-18 08:15:00,19.7,12.4,29.99,South,181,3.0,3.0,73,0.00,CLR,,0.00,WeatherDisplay:10.37,2013-02-18 13:15:00,
2013-02-18 08:20:00,19.9,12.6,29.99,SSW,192,9.0,9.0,73,0.00,CLR,,0.00,WeatherDisplay:10.37,2013-02-18 13:20:00,
2013-02-18 08:25:00,20.2,12.9,29.99,SSW,213,6.9,6.9,73,0.00,CLR,,0.00,WeatherDisplay:10.37,2013-02-18 13:25:00,
2013-02-18 08:30:00,20.4,12.8,29.98,SSW,203,8.1,8.1,72,0.00,CLR,,0.00,WeatherDisplay:10.37,2013-02-18 13:30:00,
2013-02-18 08:35:00,20.6,13.0,29.98,SSW,198,4.0,4.0,72,0.00,CLR,,0.00,WeatherDisplay:10.37,2013-02-18 13:35:00,
2013-02-18 08:40:00,20.8,13.2,29.98,SW,223,11.5,11.5,72,0.00,CLR,,0.00,WeatherDisplay:10.37,2013-02-18 13:40:00,
2013-02-18 08:45:00,21.0,13.1,29.98,South,182,5.8,5.8,71,0.00,CLR,,0.00,WeatherDisplay:10.37,2013-02-18 13:45:00,
2013-02-18 08:50:00,21.3,13.4,29.98,South,184,1.0,0.0,71,0.00,CLR,,0.00,WeatherDisplay:10.37,2013-02-18 13:50:00,
2013-02-18 08:55:00,21.4,13.5,29.97,SW,224,6.9,6.9,71,0.00,CLR,,0.00,WeatherDisplay:10.37,2013-02-18 13:55:00,
2013-02-18 09:00:00,21.5,13.2,29.97,South,181,3.5,3.5,70,0.00,CLR,,0.00,WeatherDisplay:10.37,2013-02-18 14:00:00,
2013-02-18 09:05:00,21.9,13.6,29.97,South,171,8.1,8.1,70,0.00,CLR,,0.00,WeatherDisplay:10.37,2013-02-18 14:05:00,
2013-02-18 09:10:00,22.4,13.8,29.96,SW,222,2.3,2.3,69,0.00,CLR,,0.00,WeatherDisplay:10.37,2013-02-18 14:10:00,
2013-02-18 09:15:00,22.9,13.9,29.96,South,183,10.0,10.0,68,0.00,CLR,,0.00,WeatherDisplay:10.37,2013-02-18 14:15:00,
2013-02-18 09:21:00,23.2,14.2,29.96,South,186,4.6,4.6,68,0.00,CLR,,0.00,WeatherDisplay:10.37,2013-02-18 14:21:00,
2013-02-18 09:26:00,23.7,14.3,29.96,SW,220,3.5,3.5,67,0.00,CLR,,0.00,WeatherDisplay:10.37,2013-02-18 14:26:00,
2013-02-18 09:31:00,24.0,14.3,29.96,SW,233,6.9,6.9,66,0.00,CLR,,0.00,WeatherDisplay:10.37,2013-02-18 14:31:00,
2013-02-18 09:36:00,24.5,14.4,29.95,SSW,197,10.4,10.4,65,0.00,CLR,,0.00,WeatherDisplay:10.37,2013-02-18 14:36:00,
2013-02-18 09:41:00,24.8,14.7,29.95,SW,225,6.9,6.9,65,0.00,CLR,,0.00,WeatherDisplay:10.37,2013-02-18 14:41:00,
2013-02-18 09:48:00,25.7,15.2,29.94,SW,224,5.8,5.8,64,0.00,CLR,,0.00,WeatherDisplay:10.37,2013-02-18 14:48:00,
2013-02-18 09:53:00,26.1,15.2,29.94,SSW,208,6.9,6.9,63,0.00,CLR,,0.00,WeatherDisplay:10.37,2013-02-18 14:53:00,
2013-02-18 09:58:00,26.2,14.9,29.94,South,188,9.0,9.0,62,0.00,CLR,,0.00,WeatherDisplay:10.37,2013-02-18 14:58:00,
2013-02-18 10:03:00,26.4,15.5,29.93,South,188,4.0,4.0,63,0.00,CLR,,0.00,WeatherDisplay:10.37,2013-02-18 15:03:00,
2013-02-18 10:08:00,26.7,15.4,29.93,South,178,4.6,4.6,62,0.00,CLR,,0.00,WeatherDisplay:10.37,2013-02-18 15:08:00,
2013-02-18 10:13:00,26.8,15.5,29.93,South,175,3.5,3.5,62,0.00,CLR,,0.00,WeatherDisplay:10.37,2013-02-18 15:13:00,
2013-02-18 10:18:00,27.0,15.7,29.92,SSW,209,12.7,12.7,62,0.00,CLR,,0.00,WeatherDisplay:10.37,2013-02-18 15:18:00,
2013-02-18 10:23:00,27.2,15.5,29.92,South,183,9.2,9.2,61,0.00,CLR,,0.00,WeatherDisplay:10.37,2013-02-18 15:23:00,
2013-02-18 10:29:00,27.6,15.9,29.92,SSE,150,8.1,8.1,61,0.00,CLR,,0.00,WeatherDisplay:10.37,2013-02-18 15:29:00,
2013-02-18 10:34:00,28.2,16.5,29.91,SSW,211,3.5,3.5,61,0.00,CLR,,0.00,WeatherDisplay:10.37,2013-02-18 15:34:00,
2013-02-18 10:40:00,28.5,16.4,29.91,South,182,3.5,3.5,60,0.00,CLR,,0.00,WeatherDisplay:10.37,2013-02-18 15:40:00,
2013-02-18 10:45:00,28.8,16.6,29.91,SSW,204,5.8,5.8,60,0.00,CLR,,0.00,WeatherDisplay:10.37,2013-02-18 15:45:00,
2013-02-18 10:50:00,29.2,17.0,29.91,SSW,212,3.5,3.5,60,0.00,CLR,,0.00,WeatherDisplay:10.37,2013-02-18 15:50:00,
2013-02-18 10:55:00,30.0,17.4,29.90,South,175,5.8,5.8,59,0.00,CLR,,0.00,WeatherDisplay:10.37,2013-02-18 15:55:00,
2013-02-18 11:00:00,30.3,17.3,29.90,SSW,204,11.5,11.5,58,0.00,CLR,,0.00,WeatherDisplay:10.37,2013-02-18 16:00:00,
2013-02-18 11:05:00,30.4,17.4,29.90,SW,221,7.0,7.0,58,0.00,CLR,,0.00,WeatherDisplay:10.37,2013-02-18 16:05:00,
2013-02-18 11:10:00,30.4,17.0,29.90,West,265,17.0,17.0,57,0.00,CLR,,0.00,WeatherDisplay:10.37,2013-02-18 16:10:00,
2013-02-18 11:15:00,30.3,17.3,29.90,WSW,249,16.1,16.1,58,0.00,CLR,,0.00,WeatherDisplay:10.37,2013-02-18 16:15:00,
2013-02-18 11:20:00,30.6,18.0,29.90,WSW,240,10.0,10.0,59,0.00,CLR,,0.00,WeatherDisplay:10.37,2013-02-18 16:20:00,
2013-02-18 11:25:00,31.4,18.7,29.89,WSW,242,6.9,6.9,59,0.00,CLR,,0.00,WeatherDisplay:10.37,2013-02-18 16:25:00,
2013-02-18 11:30:00,31.6,18.1,29.89,WSW,238,5.8,5.8,57,0.00,CLR,,0.00,WeatherDisplay:10.37,2013-02-18 16:30:00,
2013-02-18 11:35:00,31.5,18.0,29.89,SW,218,17.3,17.3,57,0.00,CLR,,0.00,WeatherDisplay:10.37,2013-02-18 16:35:00,
2013-02-18 11:40:00,32.0,18.5,29.89,SSW,201,6.9,6.9,57,0.00,CLR,,0.00,WeatherDisplay:10.37,2013-02-18 16:40:00,
2013-02-18 11:45:00,31.9,18.4,29.88,WSW,246,11.5,11.5,57,0.00,CLR,,0.00,WeatherDisplay:10.37,2013-02-18 16:45:00,
2013-02-18 11:50:00,32.2,18.7,29.88,SW,219,9.2,9.2,57,0.00,CLR,,0.00,WeatherDisplay:10.37,2013-02-18 16:50:00,
2013-02-18 11:55:00,32.8,19.2,29.88,WSW,248,12.0,12.0,57,0.00,CLR,,0.00,WeatherDisplay:10.37,2013-02-18 16:55:00,
2013-02-18 12:00:00,32.8,18.8,29.88,South,186,15.0,15.0,56,0.00,CLR,,0.00,WeatherDisplay:10.37,2013-02-18 17:00:00,
2013-02-18 12:05:00,32.8,19.2,29.87,SSW,209,16.0,16.0,57,0.00,CLR,,0.00,WeatherDisplay:10.37,2013-02-18 17:05:00,
2013-02-18 12:10:00,33.1,19.1,29.86,South,184,11.5,11.5,56,0.00,CLR,,0.00,WeatherDisplay:10.37,2013-02-18 17:10:00,
2013-02-18 12:15:00,33.6,19.6,29.86,SW,215,13.8,13.8,56,0.00,CLR,,0.00,WeatherDisplay:10.37,2013-02-18 17:15:00,
2013-02-18 12:20:00,33.7,19.7,29.86,SW,219,11.5,11.5,56,0.00,CLR,,0.00,WeatherDisplay:10.37,2013-02-18 17:20:00,
2013-02-18 12:25:00,33.5,19.9,29.86,SSW,212,11.5,11.5,57,0.00,CLR,,0.00,WeatherDisplay:10.37,2013-02-18 17:25:00,
2013-02-18 12:30:00,34.4,20.7,29.85,SW,230,11.5,11.5,57,0.00,CLR,,0.00,WeatherDisplay:10.37,2013-02-18 17:30:00,
2013-02-18 12:35:00,34.5,20.0,29.85,SSW,202,17.3,17.3,55,0.00,CLR,,0.00,WeatherDisplay:10.37,2013-02-18 17:35:00,
2013-02-18 12:40:00,34.4,19.9,29.84,SSW,211,13.8,13.8,55,0.00,CLR,,0.00,WeatherDisplay:10.37,2013-02-18 17:40:00,
2013-02-18 12:45:00,35.1,20.5,29.83,WSW,254,11.5,11.5,55,0.00,CLR,,0.00,WeatherDisplay:10.37,2013-02-18 17:45:00,
2013-02-18 12:50:00,35.8,21.2,29.83,SSW,199,6.0,6.0,55,0.00,CLR,,0.00,WeatherDisplay:10.37,2013-02-18 17:50:00,
2013-02-18 12:55:00,36.1,21.9,29.83,SW,215,4.6,4.6,56,0.00,CLR,,0.00,WeatherDisplay:10.37,2013-02-18 17:55:00,
2013-02-18 13:00:00,36.3,22.1,29.83,SW,231,6.9,6.9,56,0.00,CLR,,0.00,WeatherDisplay:10.37,2013-02-18 18:00:00,
2013-02-18 13:05:00,36.8,21.7,29.82,South,173,8.1,8.1,54,0.00,CLR,,0.00,WeatherDisplay:10.37,2013-02-18 18:05:00,
2013-02-18 13:10:00,37.0,21.9,29.82,SW,219,16.1,16.1,54,0.00,CLR,,0.00,WeatherDisplay:10.37,2013-02-18 18:10:00,
2013-02-18 13:15:00,37.1,22.4,29.82,SSW,201,9.2,9.2,55,0.00,CLR,,0.00,WeatherDisplay:10.37,2013-02-18 18:15:00,
2013-02-18 13:20:00,37.3,22.6,29.82,SW,223,18.4,18.4,55,0.00,CLR,,0.00,WeatherDisplay:10.37,2013-02-18 18:20:00,
2013-02-18 13:25:00,37.8,22.6,29.82,SW,230,12.0,12.0,54,0.00,CLR,,0.00,WeatherDisplay:10.37,2013-02-18 18:25:00,
2013-02-18 13:31:00,37.8,22.6,29.81,WSW,241,6.9,6.9,54,0.01,RA,,0.01,WeatherDisplay:10.37,2013-02-18 18:31:00,
2013-02-18 13:36:00,37.9,22.7,29.81,SW,225,12.7,12.7,54,0.01,RA,,0.01,WeatherDisplay:10.37,2013-02-18 18:36:00,
2013-02-18 13:41:00,37.8,23.1,29.81,South,187,6.9,6.9,55,0.01,CLR,,0.01,WeatherDisplay:10.37,2013-02-18 18:41:00,
2013-02-18 13:46:00,37.7,23.0,29.80,SW,219,6.9,6.9,55,0.01,CLR,,0.01,WeatherDisplay:10.37,2013-02-18 18:46:00,
2013-02-18 13:51:00,37.8,23.5,29.80,SSE,168,6.9,6.9,56,0.01,CLR,,0.01,WeatherDisplay:10.37,2013-02-18 18:51:00,
2013-02-18 13:56:00,37.8,23.5,29.79,WSW,246,12.7,12.7,56,0.01,CLR,,0.01,WeatherDisplay:10.37,2013-02-18 18:56:00,
2013-02-18 14:01:00,38.0,23.7,29.79,SW,231,0.0,0.0,56,0.01,CLR,,0.01,WeatherDisplay:10.37,2013-02-18 19:01:00,
2013-02-18 14:06:00,38.4,23.6,29.79,South,191,5.8,5.8,55,0.01,CLR,,0.01,WeatherDisplay:10.37,2013-02-18 19:06:00,
2013-02-18 14:11:00,38.3,23.5,29.78,South,171,10.4,10.4,55,0.01,CLR,,0.01,WeatherDisplay:10.37,2013-02-18 19:11:00,
2013-02-18 14:16:00,37.9,23.6,29.78,WSW,242,11.5,11.5,56,0.01,CLR,,0.01,WeatherDisplay:10.37,2013-02-18 19:16:00,
2013-02-18 14:21:00,37.9,23.6,29.77,West,265,17.3,17.3,56,0.01,CLR,,0.01,WeatherDisplay:10.37,2013-02-18 19:21:00,
2013-02-18 14:26:00,38.2,24.3,29.77,WSW,244,7.0,7.0,57,0.01,CLR,,0.01,WeatherDisplay:10.37,2013-02-18 19:26:00,
2013-02-18 14:31:00,37.9,23.6,29.77,South,185,13.8,13.8,56,0.00,CLR,,0.01,WeatherDisplay:10.37,2013-02-18 19:31:00,
2013-02-18 14:37:00,38.3,24.0,29.77,SW,232,5.8,5.8,56,0.00,CLR,,0.01,WeatherDisplay:10.37,2013-02-18 19:37:00,
2013-02-18 14:42:00,38.7,24.3,29.77,SSE,165,8.1,8.1,56,0.00,CLR,,0.01,WeatherDisplay:10.37,2013-02-18 19:42:00,
2013-02-18 14:47:00,38.2,24.3,29.77,SSW,213,11.5,11.5,57,0.00,CLR,,0.01,WeatherDisplay:10.37,2013-02-18 19:47:00,
2013-02-18 14:52:00,38.1,24.2,29.76,WSW,257,10.4,10.4,57,0.00,CLR,,0.01,WeatherDisplay:10.37,2013-02-18 19:52:00,
2013-02-18 14:58:00,38.8,24.4,29.76,SW,232,5.8,5.8,56,0.00,CLR,,0.01,WeatherDisplay:10.37,2013-02-18 19:58:00,
2013-02-18 15:03:00,38.8,24.4,29.76,WSW,245,10.4,10.4,56,0.00,CLR,,0.01,WeatherDisplay:10.37,2013-02-18 20:03:00,
2013-02-18 15:08:00,38.5,24.6,29.76,SW,215,8.0,8.0,57,0.00,CLR,,0.01,WeatherDisplay:10.37,2013-02-18 20:08:00,
2013-02-18 15:14:00,37.9,24.4,29.76,SW,221,5.8,5.8,58,0.00,CLR,,0.01,WeatherDisplay:10.37,2013-02-18 20:14:00,
2013-02-18 15:19:00,38.0,24.5,29.76,South,184,3.5,3.5,58,0.00,CLR,,0.01,WeatherDisplay:10.37,2013-02-18 20:19:00,
2013-02-18 15:24:00,38.0,24.5,29.76,SW,235,7.0,7.0,58,0.00,CLR,,0.01,WeatherDisplay:10.37,2013-02-18 20:24:00,
2013-02-18 15:29:00,38.0,24.5,29.75,SW,235,6.9,6.9,58,0.00,CLR,,0.01,WeatherDisplay:10.37,2013-02-18 20:29:00,
2013-02-18 15:34:00,37.8,24.7,29.75,WSW,244,11.5,11.5,59,0.00,CLR,,0.01,WeatherDisplay:10.37,2013-02-18 20:34:00,
2013-02-18 15:39:00,37.6,24.6,29.75,SSW,211,4.0,4.0,59,0.00,CLR,,0.01,WeatherDisplay:10.37,2013-02-18 20:39:00,
2013-02-18 15:44:00,37.5,24.9,29.75,South,185,3.5,3.5,60,0.00,CLR,,0.01,WeatherDisplay:10.37,2013-02-18 20:44:00,
2013-02-18 15:49:00,37.7,25.1,29.74,South,190,10.4,10.4,60,0.00,CLR,,0.01,WeatherDisplay:10.37,2013-02-18 20:49:00,
2013-02-18 15:54:00,37.5,24.9,29.75,SW,232,10.4,10.4,60,0.00,CLR,,0.01,WeatherDisplay:10.37,2013-02-18 20:54:00,
2013-02-18 15:59:00,37.3,24.7,29.74,SSW,212,7.0,7.0,60,0.00,CLR,,0.01,WeatherDisplay:10.37,2013-02-18 20:59:00,
2013-02-18 16:04:00,37.5,24.9,29.74,SSW,204,5.0,5.0,60,0.00,CLR,,0.01,WeatherDisplay:10.37,2013-02-18 21:04:00,
2013-02-18 16:09:00,37.6,25.0,29.74,South,176,11.5,11.5,60,0.00,CLR,,0.01,WeatherDisplay:10.37,2013-02-18 21:09:00,
2013-02-18 16:14:00,37.8,25.1,29.73,West,259,7.0,7.0,60,0.00,CLR,,0.01,WeatherDisplay:10.37,2013-02-18 21:14:00,
2013-02-18 16:19:00,37.9,25.2,29.73,WSW,248,2.3,2.3,60,0.00,CLR,,0.01,WeatherDisplay:10.37,2013-02-18 21:19:00,
2013-02-18 16:24:00,38.0,25.3,29.73,SW,229,3.5,3.5,60,0.00,CLR,,0.01,WeatherDisplay:10.37,2013-02-18 21:24:00,
2013-02-18 16:29:00,37.8,25.5,29.73,South,187,5.0,5.0,61,0.00,CLR,,0.01,WeatherDisplay:10.37,2013-02-18 21:29:00,
2013-02-18 16:34:00,37.4,25.2,29.73,South,184,11.5,11.5,61,0.00,CLR,,0.01,WeatherDisplay:10.37,2013-02-18 21:34:00,
2013-02-18 16:39:00,37.3,25.1,29.72,SSW,209,3.5,3.5,61,0.00,CLR,,0.01,WeatherDisplay:10.37,2013-02-18 21:39:00,
2013-02-18 16:44:00,37.1,24.9,29.73,SSW,198,11.5,11.5,61,0.00,CLR,,0.01,WeatherDisplay:10.37,2013-02-18 21:44:00,
2013-02-18 16:49:00,37.0,24.8,29.73,SW,220,8.0,8.0,61,0.00,CLR,,0.01,WeatherDisplay:10.37,2013-02-18 21:49:00,
2013-02-18 16:54:00,37.0,25.2,29.73,SSW,198,7.0,7.0,62,0.00,CLR,,0.01,WeatherDisplay:10.37,2013-02-18 21:54:00,
2013-02-18 16:59:00,37.0,24.8,29.73,SSW,203,9.0,9.0,61,0.00,CLR,,0.01,WeatherDisplay:10.37,2013-02-18 21:59:00,
2013-02-18 17:04:00,37.0,25.2,29.73,SSW,192,3.5,3.5,62,0.00,CLR,,0.01,WeatherDisplay:10.37,2013-02-18 22:04:00,
2013-02-18 17:09:00,36.8,25.0,29.72,SSW,192,9.2,9.2,62,0.00,CLR,,0.01,WeatherDisplay:10.37,2013-02-18 22:09:00,
2013-02-18 17:14:00,36.6,25.2,29.72,South,176,11.5,11.5,63,0.00,CLR,,0.01,WeatherDisplay:10.37,2013-02-18 22:14:00,
2013-02-18 17:19:00,36.4,25.4,29.72,SSE,167,2.3,2.3,64,0.00,CLR,,0.01,WeatherDisplay:10.37,2013-02-18 22:19:00,
2013-02-18 17:24:00,36.3,25.3,29.71,SSW,206,4.6,4.6,64,0.00,CLR,,0.01,WeatherDisplay:10.37,2013-02-18 22:24:00,
2013-02-18 17:29:00,36.2,25.2,29.71,SSW,207,5.8,5.8,64,0.00,CLR,,0.01,WeatherDisplay:10.37,2013-02-18 22:29:00,
2013-02-18 17:34:00,36.2,25.2,29.71,SSW,200,8.1,8.1,64,0.00,CLR,,0.01,WeatherDisplay:10.37,2013-02-18 22:34:00,
2013-02-18 17:39:00,36.1,25.5,29.70,South,191,5.8,5.8,65,0.00,CLR,,0.01,WeatherDisplay:10.37,2013-02-18 22:39:00,
2013-02-18 17:44:00,36.1,25.5,29.70,SSW,210,3.5,3.5,65,0.00,CLR,,0.01,WeatherDisplay:10.37,2013-02-18 22:44:00,
2013-02-18 17:49:00,36.1,25.5,29.70,South,177,4.6,4.6,65,0.00,CLR,,0.01,WeatherDisplay:10.37,2013-02-18 22:49:00,
2013-02-18 17:54:00,36.1,25.5,29.70,South,184,6.0,6.0,65,0.00,CLR,,0.01,WeatherDisplay:10.37,2013-02-18 22:54:00,
2013-02-18 17:59:00,36.0,25.4,29.70,SSW,201,2.3,2.3,65,0.00,CLR,,0.01,WeatherDisplay:10.37,2013-02-18 22:59:00,
2013-02-18 18:04:00,35.9,25.3,29.70,SSW,209,2.3,2.3,65,0.00,CLR,,0.01,WeatherDisplay:10.37,2013-02-18 23:04:00,
2013-02-18 18:09:00,35.9,25.6,29.69,South,182,3.5,3.5,66,0.00,CLR,,0.01,WeatherDisplay:10.37,2013-02-18 23:09:00,
2013-02-18 18:14:00,35.8,25.5,29.69,SSE,149,9.2,9.2,66,0.00,CLR,,0.01,WeatherDisplay:10.37,2013-02-18 23:14:00,
2013-02-18 18:19:00,35.7,25.8,29.68,South,173,0.0,0.0,67,0.00,CLR,,0.01,WeatherDisplay:10.37,2013-02-18 23:19:00,
2013-02-18 18:24:00,35.5,25.6,29.68,South,173,2.3,2.3,67,0.00,CLR,,0.01,WeatherDisplay:10.37,2013-02-18 23:24:00,
2013-02-18 18:29:00,35.4,25.9,29.68,SSE,167,5.0,5.0,68,0.00,CLR,,0.01,WeatherDisplay:10.37,2013-02-18 23:29:00,
2013-02-18 18:34:00,35.3,25.8,29.68,SSE,159,0.0,0.0,68,0.00,CLR,,0.01,WeatherDisplay:10.37,2013-02-18 23:34:00,
2013-02-18 18:39:00,35.1,25.6,29.68,SSE,157,5.8,5.8,68,0.00,CLR,,0.01,WeatherDisplay:10.37,2013-02-18 23:39:00,
2013-02-18 18:44:00,35.1,25.9,29.68,SSE,158,6.9,6.9,69,0.00,CLR,,0.01,WeatherDisplay:10.37,2013-02-18 23:44:00,
2013-02-18 18:49:00,35.0,26.2,29.68,SSE,159,3.5,3.5,70,0.00,CLR,,0.01,WeatherDisplay:10.37,2013-02-18 23:49:00,
2013-02-18 18:54:00,35.0,26.2,29.68,SSE,153,5.8,5.8,70,0.00,CLR,,0.01,WeatherDisplay:10.37,2013-02-18 23:54:00,
2013-02-18 18:59:00,35.0,26.5,29.67,SSE,168,1.1,1.1,71,0.00,CLR,,0.01,WeatherDisplay:10.37,2013-02-18 23:59:00,
2013-02-18 19:04:00,35.0,26.5,29.68,South,184,5.0,5.0,71,0.00,CLR,,0.01,WeatherDisplay:10.37,2013-02-19 00:04:00,
2013-02-18 19:09:00,35.1,26.6,29.67,South,172,4.6,4.6,71,0.00,CLR,,0.01,WeatherDisplay:10.37,2013-02-19 00:09:00,
2013-02-18 19:14:00,35.2,26.7,29.67,South,175,5.8,5.8,71,0.00,CLR,,0.01,WeatherDisplay:10.37,2013-02-19 00:14:00,
2013-02-18 19:19:00,35.2,26.7,29.67,SSE,158,3.5,3.5,71,0.00,CLR,,0.01,WeatherDisplay:10.37,2013-02-19 00:19:00,
2013-02-18 19:24:00,35.2,26.7,29.67,South,189,5.8,5.8,71,0.00,CLR,,0.01,WeatherDisplay:10.37,2013-02-19 00:24:00,
2013-02-18 19:29:00,35.3,26.8,29.66,SSE,165,3.5,3.5,71,0.00,CLR,,0.01,WeatherDisplay:10.37,2013-02-19 00:29:00,
2013-02-18 19:34:00,35.3,26.8,29.66,SSE,168,2.3,2.3,71,0.00,CLR,,0.01,WeatherDisplay:10.37,2013-02-19 00:34:00,
2013-02-18 19:40:00,35.4,26.9,29.66,SSW,198,5.8,5.8,71,0.00,CLR,,0.01,WeatherDisplay:10.37,2013-02-19 00:40:00,
2013-02-18 19:45:00,35.4,27.3,29.66,SSE,168,1.1,0.0,72,0.00,CLR,,0.01,WeatherDisplay:10.37,2013-02-19 00:45:00,
2013-02-18 19:50:00,35.4,27.3,29.65,South,184,3.5,3.5,72,0.00,CLR,,0.01,WeatherDisplay:10.37,2013-02-19 00:50:00,
2013-02-18 19:55:00,35.4,27.6,29.65,South,175,5.8,5.8,73,0.00,CLR,,0.01,WeatherDisplay:10.37,2013-02-19 00:55:00,
2013-02-18 20:00:00,35.4,27.6,29.65,SSE,152,3.5,3.5,73,0.00,CLR,,0.01,WeatherDisplay:10.37,2013-02-19 01:00:00,
2013-02-18 20:05:00,35.4,27.9,29.64,SSE,157,3.5,0.0,74,0.00,CLR,,0.01,WeatherDisplay:10.37,2013-02-19 01:05:00,
2013-02-18 20:10:00,35.4,27.9,29.64,SSE,165,5.0,5.0,74,0.00,CLR,,0.01,WeatherDisplay:10.37,2013-02-19 01:10:00,
2013-02-18 20:16:00,35.3,28.2,29.64,South,178,4.6,4.6,75,0.00,CLR,,0.01,WeatherDisplay:10.37,2013-02-19 01:16:00,
2013-02-18 20:21:00,35.1,28.3,29.63,SE,140,3.5,3.5,76,0.00,CLR,,0.01,WeatherDisplay:10.37,2013-02-19 01:21:00,
2013-02-18 20:26:00,34.8,28.6,29.62,SSE,163,5.0,5.0,78,0.00,CLR,,0.01,WeatherDisplay:10.37,2013-02-19 01:26:00,
2013-02-18 20:31:00,34.6,28.8,29.62,SSE,157,3.5,3.5,79,0.00,CLR,,0.01,WeatherDisplay:10.37,2013-02-19 01:31:00,
2013-02-18 20:36:00,34.4,28.6,29.62,SSE,155,3.0,0.0,79,0.00,CLR,,0.01,WeatherDisplay:10.37,2013-02-19 01:36:00,
2013-02-18 20:41:00,34.4,28.9,29.61,SSE,163,0.0,0.0,80,0.00,CLR,,0.01,WeatherDisplay:10.37,2013-02-19 01:41:00,
2013-02-18 20:46:00,34.4,28.9,29.61,SE,145,2.3,2.3,80,0.00,CLR,,0.01,WeatherDisplay:10.37,2013-02-19 01:46:00,
2013-02-18 20:51:00,34.4,28.9,29.60,South,175,3.5,3.5,80,0.00,CLR,,0.01,WeatherDisplay:10.37,2013-02-19 01:51:00,
2013-02-18 20:57:00,34.4,28.9,29.60,South,176,1.1,0.0,80,0.00,CLR,,0.01,WeatherDisplay:10.37,2013-02-19 01:57:00,
2013-02-18 21:02:00,34.4,29.2,29.60,South,177,1.1,1.1,81,0.00,CLR,,0.01,WeatherDisplay:10.37,2013-02-19 02:02:00,
2013-02-18 21:07:00,34.4,29.2,29.59,South,177,0.0,0.0,81,0.00,CLR,,0.01,WeatherDisplay:10.37,2013-02-19 02:07:00,
2013-02-18 21:12:00,34.7,29.5,29.59,South,173,4.6,4.6,81,0.00,CLR,,0.01,WeatherDisplay:10.37,2013-02-19 02:12:00,
2013-02-18 21:17:00,34.9,29.4,29.59,South,175,4.0,4.0,80,0.00,CLR,,0.01,WeatherDisplay:10.37,2013-02-19 02:17:00,
2013-02-18 21:22:00,35.1,29.6,29.58,South,178,0.0,0.0,80,0.00,CLR,,0.01,WeatherDisplay:10.37,2013-02-19 02:22:00,
2013-02-18 21:28:00,35.3,29.7,29.58,South,176,3.5,3.5,80,0.00,CLR,,0.01,WeatherDisplay:10.37,2013-02-19 02:28:00,
2013-02-18 21:33:00,35.5,29.9,29.58,South,176,2.3,2.3,80,0.00,CLR,,0.01,WeatherDisplay:10.37,2013-02-19 02:33:00,
2013-02-18 21:38:00,35.5,29.9,29.58,South,178,0.0,0.0,80,0.00,CLR,,0.01,WeatherDisplay:10.37,2013-02-19 02:38:00,
2013-02-18 21:43:00,35.5,30.2,29.58,South,178,2.3,0.0,81,0.00,CLR,,0.01,WeatherDisplay:10.37,2013-02-19 02:43:00,
2013-02-18 21:48:00,35.5,30.2,29.57,South,178,0.0,0.0,81,0.00,CLR,,0.01,WeatherDisplay:10.37,2013-02-19 02:48:00,
2013-02-18 21:54:00,35.6,30.6,29.57,South,173,2.3,2.3,82,0.00,CLR,,0.01,WeatherDisplay:10.37,2013-02-19 02:54:00,
2013-02-18 21:59:00,35.7,30.7,29.56,South,174,0.0,0.0,82,0.00,CLR,,0.01,WeatherDisplay:10.37,2013-02-19 02:59:00,
2013-02-18 22:05:00,35.9,31.5,29.56,South,173,1.1,1.1,84,0.00,CLR,,0.01,WeatherDisplay:10.37,2013-02-19 03:05:00,
2013-02-18 22:10:00,36.2,32.1,29.56,South,186,3.5,3.5,85,0.00,CLR,,0.01,WeatherDisplay:10.37,2013-02-19 03:10:00,
2013-02-18 22:15:00,36.5,32.7,29.56,South,184,1.1,1.1,86,0.00,CLR,,0.01,WeatherDisplay:10.37,2013-02-19 03:15:00,
2013-02-18 22:21:00,37.0,33.5,29.55,South,190,3.5,3.5,87,0.00,CLR,,0.01,WeatherDisplay:10.37,2013-02-19 03:21:00,
2013-02-18 22:26:00,37.6,34.4,29.55,SSW,192,0.0,0.0,88,0.00,CLR,,0.01,WeatherDisplay:10.37,2013-02-19 03:26:00,
2013-02-18 22:31:00,38.1,35.1,29.54,SW,227,4.6,4.6,89,0.00,CLR,,0.01,WeatherDisplay:10.37,2013-02-19 03:31:00,
2013-02-18 22:37:00,38.9,36.2,29.54,SSW,192,3.5,3.5,90,0.00,CLR,,0.01,WeatherDisplay:10.37,2013-02-19 03:37:00,
2013-02-18 22:42:00,39.3,36.6,29.54,SSW,206,4.6,4.6,90,0.01,RA,,0.02,WeatherDisplay:10.37,2013-02-19 03:42:00,
2013-02-18 22:47:00,39.5,36.8,29.53,SSW,211,3.5,3.5,90,0.02,RA,,0.03,WeatherDisplay:10.37,2013-02-19 03:47:00,
2013-02-18 22:52:00,39.5,37.1,29.53,SSW,200,9.2,9.2,91,0.02,RA,,0.03,WeatherDisplay:10.37,2013-02-19 03:52:00,
2013-02-18 22:58:00,39.6,37.2,29.52,SSW,202,9.2,9.2,91,0.03,RA,,0.04,WeatherDisplay:10.37,2013-02-19 03:58:00,
2013-02-18 23:03:00,39.6,37.2,29.52,SW,232,7.0,7.0,91,0.03,RA,,0.04,WeatherDisplay:10.37,2013-02-19 04:03:00,
2013-02-18 23:08:00,39.6,37.2,29.52,SSW,194,2.3,0.0,91,0.04,RA,,0.05,WeatherDisplay:10.37,2013-02-19 04:08:00,
2013-02-18 23:13:00,39.5,37.1,29.51,SSW,203,7.0,7.0,91,0.04,RA,,0.05,WeatherDisplay:10.37,2013-02-19 04:13:00,
2013-02-18 23:18:00,39.6,37.2,29.51,South,184,5.8,5.8,91,0.04,,,0.05,WeatherDisplay:10.37,2013-02-19 04:18:00,
2013-02-18 23:23:00,39.5,37.1,29.50,SSW,211,6.9,6.9,91,0.04,CLR,,0.05,WeatherDisplay:10.37,2013-02-19 04:23:00,
2013-02-18 23:28:00,39.5,37.1,29.50,SSW,194,6.9,6.9,91,0.04,CLR,,0.05,WeatherDisplay:10.37,2013-02-19 04:28:00,
2013-02-18 23:33:00,39.3,36.9,29.49,South,179,8.1,8.1,91,0.04,CLR,,0.05,WeatherDisplay:10.37,2013-02-19 04:33:00,
2013-02-18 23:38:00,39.3,36.9,29.49,SW,224,3.5,3.5,91,0.04,CLR,,0.05,WeatherDisplay:10.37,2013-02-19 04:38:00,
2013-02-18 23:43:00,39.3,36.9,29.49,SSW,207,2.0,2.0,91,0.03,CLR,,0.05,WeatherDisplay:10.37,2013-02-19 04:43:00,
2013-02-18 23:48:00,39.3,36.9,29.49,SSW,200,3.5,3.5,91,0.02,CLR,,0.05,WeatherDisplay:10.37,2013-02-19 04:48:00,
2013-02-18 23:53:00,39.4,37.0,29.48,South,191,11.5,11.5,91,0.02,CLR,,0.05,WeatherDisplay:10.37,2013-02-19 04:53:00,
2013-02-18 23:58:00,39.4,37.0,29.48,South,191,9.0,9.0,91,0.02,RA,,0.06,WeatherDisplay:10.37,2013-02-19 04:58:00,